Weather History for Port Weller, ON

Change the Weather History Date:

Saturday, October 20, 2012

  Actual Average Record
Temperature  
Mean Temperature 50 °F -  
Max Temperature 53 °F - - ()
Min Temperature 47 °F - - ()
Degree Days  
Heating Degree Days 15    
Moisture  
Dew Point 45 °F    
Average Humidity 83    
Maximum Humidity 97    
Minimum Humidity 62    
Precipitation  
Precipitation 0.08 in - - ()
Sea Level Pressure  
Sea Level Pressure 29.66 in    
Wind  
Wind Speed 6 mph ()    
Max Wind Speed 13 mph    
Max Gust Speed 20 mph    
T = Trace of Precipitation, MM = Missing Value Source: Averaged Metar Reports

Daily Weather History Graph

Daily Weather History Graph

Search for Another Location

Airport:

Trip Planner

Search our weather history database for the weather conditions in past years. The results will help you decide how hot, cold, wet, or windy it might be!

Date:

Astronomy

Oct. 20, 2012 Rise Set
Actual Time 7:37 AM EDT 6:25 PM EDT
Civil Twilight 7:08 AM EDT 6:54 PM EDT
Nautical Twilight 6:35 AM EDT 7:27 PM EDT
Astronomical Twilight 6:02 AM EDT 8:00 PM EDT
Moon 1:16 PM EDT 11:04 PM EDT
Length of Visible Light 11h 45m
Length of Day
10h 47m
Waxing Crescent, 34% of the Moon is Illuminated
Oct 20
Waxing Crescent
Oct 21
First Quarter
Oct 29
Full
Nov 6
Last Quarter
Nov 13
New

Hourly Weather History & Observations

Time (EDT) Temp. Dew Point Humidity Pressure Visibility Wind Dir Wind Speed Gust Speed Precip Events Conditions
12:00 AM 50.9 °F 50.0 °F 97% 29.62 in - NW 11.5 mph - 0.10 in   Unknown
1:00 AM 51.4 °F 50.5 °F 97% 29.62 in - NE 5.8 mph - N/A   Unknown
2:00 AM 52 °F 49 °F 87% 29.61 in - ESE 5.8 mph - -  
2:00 AM 51.8 °F 49.3 °F 91% 29.61 in - ESE 5.8 mph - N/A   Unknown
3:00 AM 50.4 °F 47.5 °F 90% 29.63 in - WSW 4.6 mph - 0.03 in   Unknown
4:00 AM 49.1 °F 47.1 °F 93% 29.63 in - SSW 2.3 mph - 0.04 in   Unknown
5:00 AM 48 °F 45 °F 86% 29.62 in - South 6.9 mph - -  
5:00 AM 48.2 °F 45.1 °F 89% 29.62 in - South 6.9 mph - N/A   Unknown
6:00 AM 48.4 °F 44.4 °F 86% 29.63 in - South 9.2 mph - N/A   Unknown
7:00 AM 50.0 °F 45.9 °F 86% 29.64 in - SSW 8.1 mph - N/A   Unknown
8:00 AM 48 °F 45 °F 85% 29.65 in - SW 3.5 mph - -  
8:00 AM 47.8 °F 45.0 °F 90% 29.65 in - SW 3.5 mph - 0.01 in   Unknown
9:00 AM 48.6 °F 45.3 °F 89% 29.65 in - WSW 3.5 mph - N/A   Unknown
10:00 AM 49.3 °F 45.7 °F 87% 29.65 in - SW 3.5 mph - N/A   Unknown
11:00 AM 50 °F 43 °F 71% 29.65 in - SSW 8.1 mph - -  
11:00 AM 50.4 °F 43.3 °F 77% 29.65 in - SSW 8.1 mph - N/A   Unknown
12:00 PM 50.7 °F 44.1 °F 78% 29.66 in - SSW 6.9 mph - N/A   Unknown
1:00 PM 51.6 °F 43.5 °F 74% 29.67 in - SW 8.1 mph - N/A   Unknown
2:00 PM 53 °F 44 °F 62% 29.67 in - SSW 12.7 mph - -  
2:00 PM 52.9 °F 43.7 °F 71% 29.67 in - SSW 12.7 mph 19.6 mph N/A   Unknown
3:00 PM 51.6 °F 43.2 °F 73% 29.66 in - SSW 10.4 mph 19.6 mph N/A   Unknown
4:00 PM 52.2 °F 43.0 °F 71% 29.66 in - SSW 10.4 mph - N/A   Unknown
5:00 PM 51 °F 44 °F 70% 29.67 in - SW 8.1 mph - -  
5:00 PM 51.4 °F 44.1 °F 76% 29.67 in - SW 8.1 mph - N/A   Unknown
6:00 PM 50.4 °F 44.1 °F 79% 29.69 in - SW 6.9 mph - 0.01 in   Unknown
7:00 PM 49.3 °F 45.0 °F 85% 29.71 in - SW 6.9 mph - N/A   Unknown
8:00 PM 50 °F 46 °F 81% 29.72 in - SW 4.6 mph - -  
8:00 PM 50.2 °F 46.0 °F 86% 29.72 in - SW 4.6 mph - N/A   Unknown
9:00 PM 50.5 °F 46.4 °F 86% 29.73 in - WSW 4.6 mph - N/A   Unknown